TimeEST,TemperatureF,Dew PointF,Humidity,Sea Level PressureIn,VisibilityMPH,Wind Direction,Wind SpeedMPH,Gust SpeedMPH,PrecipitationIn,Events,Conditions,WindDirDegrees,DateUTC
12:15 AM,32.0,31.8,99,29.50,1.8,East,8.1,-,N/A,Snow,Light Snow,100,2012-03-01 05:15:00
12:35 AM,32.0,32.0,100,29.50,2.0,East,5.8,-,N/A,Snow,Light Snow,90,2012-03-01 05:35:00
12:55 AM,32.0,32.0,100,29.51,2.0,ENE,4.6,-,N/A,Snow,Light Snow,70,2012-03-01 05:55:00
1:14 AM,32.0,32.0,100,29.52,2.0,Calm,Calm,-,N/A,Snow,Light Snow,0,2012-03-01 06:14:00
1:35 AM,32.0,31.8,99,29.52,2.5,NE,3.5,-,N/A,Snow,Light Snow,40,2012-03-01 06:35:00
2:15 AM,32.0,31.6,99,29.54,5.0,NE,4.6,-,N/A,Snow,Light Snow,50,2012-03-01 07:15:00
2:35 AM,32.0,31.6,99,29.55,7.0,NE,5.8,-,N/A,Snow,Light Snow,50,2012-03-01 07:35:00
2:55 AM,32.0,31.5,98,29.55,7.0,NNE,5.8,-,N/A,,Overcast,30,2012-03-01 07:55:00
3:14 AM,32.0,31.5,98,29.55,7.0,NNE,6.9,-,N/A,Snow,Light Snow,30,2012-03-01 08:14:00
3:35 AM,32.0,31.1,96,29.55,10.0,NE,6.9,-,N/A,,Overcast,40,2012-03-01 08:35:00
4:14 AM,31.8,30.7,96,29.57,3.0,ENE,8.1,-,N/A,Snow,Light Snow,60,2012-03-01 09:14:00
4:35 AM,30.6,29.1,94,29.57,2.0,ENE,11.5,-,N/A,Snow,Light Snow,70,2012-03-01 09:35:00
4:55 AM,30.2,28.6,94,29.59,4.0,ENE,6.9,-,N/A,Snow,Light Snow,60,2012-03-01 09:55:00
5:15 AM,29.3,27.1,92,29.59,10.0,ENE,11.5,-,N/A,Snow,Light Snow,70,2012-03-01 10:15:00
5:35 AM,29.1,27.0,92,29.61,10.0,East,6.9,-,N/A,,Overcast,80,2012-03-01 10:35:00
5:55 AM,28.9,26.4,90,29.62,10.0,ENE,6.9,-,N/A,,Overcast,70,2012-03-01 10:55:00
6:15 AM,28.9,26.2,90,29.63,10.0,ENE,10.4,-,N/A,,Overcast,70,2012-03-01 11:15:00
6:35 AM,28.9,26.4,90,29.64,10.0,ENE,4.6,-,N/A,,Overcast,70,2012-03-01 11:35:00
6:54 AM,28.8,26.2,90,29.65,10.0,ENE,8.1,-,N/A,,Overcast,70,2012-03-01 11:54:00
7:15 AM,28.8,26.2,90,29.66,10.0,ENE,6.9,-,N/A,,Overcast,70,2012-03-01 12:15:00
7:35 AM,28.9,26.4,90,29.67,10.0,East,6.9,-,N/A,,Overcast,80,2012-03-01 12:35:00
8:15 AM,28.9,26.6,91,29.67,10.0,ENE,9.2,-,N/A,,Overcast,70,2012-03-01 13:15:00
8:35 AM,29.1,26.4,90,29.70,10.0,East,4.6,-,N/A,,Overcast,100,2012-03-01 13:35:00
8:54 AM,29.1,26.1,88,29.71,10.0,Calm,Calm,-,N/A,,Overcast,0,2012-03-01 13:54:00
9:15 AM,29.1,26.2,89,29.72,10.0,East,3.5,-,N/A,,Overcast,80,2012-03-01 14:15:00
9:34 AM,29.3,26.4,89,29.73,10.0,ENE,3.5,-,N/A,,Overcast,70,2012-03-01 14:34:00
10:15 AM,29.7,26.6,88,29.72,10.0,NE,3.5,-,N/A,,Overcast,40,2012-03-01 15:15:00
10:34 AM,29.8,26.4,87,29.73,10.0,Calm,Calm,-,N/A,,Overcast,0,2012-03-01 15:34:00
10:55 AM,30.0,26.4,86,29.74,10.0,Calm,Calm,-,N/A,,Overcast,0,2012-03-01 15:55:00
11:35 AM,30.4,26.6,86,29.75,10.0,Calm,Calm,-,N/A,,Overcast,0,2012-03-01 16:35:00
11:55 AM,30.7,27.0,86,29.74,10.0,Calm,Calm,-,N/A,,Overcast,0,2012-03-01 16:55:00
12:15 PM,31.1,27.3,86,29.74,10.0,NNE,3.5,-,N/A,,Overcast,30,2012-03-01 17:15:00
12:35 PM,31.8,27.1,83,29.75,10.0,Calm,Calm,-,N/A,,Overcast,0,2012-03-01 17:35:00
1:14 PM,32.7,27.9,82,29.77,10.0,West,6.9,-,N/A,,Overcast,270,2012-03-01 18:14:00
1:35 PM,32.0,27.3,83,29.78,10.0,WNW,8.1,-,N/A,,Overcast,290,2012-03-01 18:35:00
1:55 PM,31.8,27.5,84,29.79,10.0,NW,6.9,-,N/A,,Overcast,310,2012-03-01 18:55:00
2:14 PM,31.1,27.3,86,29.79,10.0,WNW,4.6,-,N/A,,Overcast,300,2012-03-01 19:14:00
2:35 PM,31.5,27.1,84,29.80,10.0,West,5.8,-,N/A,,Overcast,270,2012-03-01 19:35:00
2:55 PM,31.8,27.3,83,29.79,10.0,WNW,4.6,-,N/A,,Overcast,300,2012-03-01 19:55:00
3:15 PM,31.8,27.1,83,29.78,10.0,North,3.5,-,N/A,,Overcast,360,2012-03-01 20:15:00
3:35 PM,30.9,26.6,84,29.77,10.0,Calm,Calm,-,N/A,,Scattered Clouds,0,2012-03-01 20:35:00
3:54 PM,31.8,27.0,82,29.78,10.0,NNW,3.5,-,N/A,,Clear,330,2012-03-01 20:54:00
4:15 PM,31.6,26.8,82,29.79,10.0,NNW,3.5,-,N/A,,Clear,330,2012-03-01 21:15:00
4:34 PM,31.3,26.8,83,29.79,10.0,NNW,3.5,-,N/A,,Scattered Clouds,330,2012-03-01 21:34:00
4:55 PM,31.1,27.0,85,29.79,10.0,NW,3.5,-,N/A,,Mostly Cloudy,320,2012-03-01 21:55:00
5:15 PM,31.6,27.3,84,29.81,10.0,Calm,Calm,-,N/A,,Overcast,0,2012-03-01 22:15:00
5:55 PM,31.1,27.3,86,29.81,10.0,Calm,Calm,-,N/A,,Overcast,0,2012-03-01 22:55:00
6:34 PM,31.8,28.0,86,29.83,10.0,Calm,Calm,-,N/A,,Overcast,0,2012-03-01 23:34:00
6:55 PM,32.0,27.9,85,29.83,10.0,Calm,Calm,-,N/A,,Overcast,0,2012-03-01 23:55:00
7:15 PM,31.5,28.0,87,29.83,10.0,WNW,3.5,-,N/A,,Overcast,290,2012-03-02 00:15:00
7:34 PM,31.5,28.2,88,29.84,10.0,WNW,3.5,-,N/A,,Overcast,290,2012-03-02 00:34:00
7:55 PM,31.8,28.2,87,29.84,10.0,Calm,Calm,-,N/A,,Overcast,0,2012-03-02 00:55:00
8:15 PM,31.5,28.0,87,29.83,10.0,Calm,Calm,-,N/A,,Overcast,0,2012-03-02 01:15:00
8:34 PM,31.5,27.9,87,29.83,10.0,Calm,Calm,-,N/A,,Overcast,0,2012-03-02 01:34:00
8:55 PM,31.6,28.2,87,29.82,10.0,Calm,Calm,-,N/A,,Overcast,0,2012-03-02 01:55:00
9:15 PM,31.5,28.2,88,29.82,10.0,Calm,Calm,-,N/A,,Overcast,0,2012-03-02 02:15:00
9:34 PM,31.1,28.4,90,29.81,10.0,East,3.5,-,N/A,,Overcast,100,2012-03-02 02:34:00
9:55 PM,31.1,28.6,90,29.82,10.0,ESE,3.5,-,N/A,,Overcast,120,2012-03-02 02:55:00
10:14 PM,30.9,28.4,90,29.82,10.0,Calm,Calm,-,N/A,,Overcast,0,2012-03-02 03:14:00
10:35 PM,31.1,28.4,90,29.82,10.0,SE,3.5,-,N/A,,Overcast,130,2012-03-02 03:35:00
10:55 PM,31.1,28.4,90,29.82,10.0,Calm,Calm,-,N/A,,Overcast,0,2012-03-02 03:55:00
11:14 PM,31.1,28.4,90,29.82,10.0,Calm,Calm,-,N/A,,Overcast,0,2012-03-02 04:14:00
11:35 PM,31.1,28.8,91,29.82,10.0,Calm,Calm,-,N/A,,Overcast,0,2012-03-02 04:35:00
11:55 PM,31.1,29.1,92,29.83,10.0,Calm,Calm,-,N/A,,Overcast,0,2012-03-02 04:55:00